Location: *
(43.7000°S, 168.7000°W)
Time: 11:51:13
(UTC+00:00)

Daily predictions for brighter satellites

Satellite Brightness Start Highest point End
(mag) Time Altitude Azimuth Time Altitude Azimuth Time Altitude Azimuth
CZ-4C R/B 4.1 14:41:32 36° E 14:41:32 36° E 14:47:06 10° SE
Lacrosse 4 Rocket 4.5 15:17:00 13° ENE 15:17:00 13° ENE 15:17:31 10° ENE
Cosmos 2227 Rocket 4.1 15:32:39 22° SSE 15:34:23 25° SE 15:39:00 10° ENE
Cosmos 2219 4.4 15:44:10 34° SSE 15:45:36 39° ESE 15:50:59 10° NE
BREEZE-M R/B 4.1 15:56:00 80° SW 15:56:13 81° SSW 16:07:39 10° ESE
Okean O Rocket 2.7 15:53:28 10° NE 15:57:34 44° ESE 15:57:34 44° ESE
USA 267 3.2 15:52:12 10° SE 15:58:32 65° SSW 15:58:32 65° SSW
SMAP 4.4 15:59:29 10° NE 16:03:49 38° ESE 16:06:15 22° SSE
Cosmos 1777 Rocket 4.3 16:05:53 61° SSE 16:06:26 65° ESE 16:11:37 10° NNE
SJ 16-02 4.1 16:04:23 10° SSE 16:07:02 15° SE 16:09:39 10° E
CZ-4B R/B 3.3 16:09:42 10° NNE 16:15:12 77° ESE 16:18:02 31° S
Meteor 1-22 Rocket 4.5 16:20:12 11° S 16:26:11 80° E 16:32:18 10° NNE
Cosmos 1697 Rocket 4.4 16:21:49 10° NNE 16:26:46 33° ENE 16:31:46 10° SE
YAOGAN 6 3.6 16:25:31 10° NNE 16:29:01 46° ESE 16:29:48 39° SE
CZ-4C R/B 2.9 16:26:48 44° WNW 16:29:02 59° SW 16:35:54 10° SSE
ATLAS 2AS CENTAUR R/B 4.2 16:30:06 16° SSW 16:30:06 16° SSW 16:33:17 10° SSE
Cosmos 1766 4.5 16:35:03 32° N 16:35:03 32° N 16:37:16 10° N
USA 234 3.2 16:26:55 10° NE 16:33:30 78° NW 16:36:06 40° WSW
Nadezhda 4 Rocket 4.0 16:28:13 10° N 16:34:33 85° E 16:40:54 10° S
Cosmos 2297 Rocket 2.3 16:32:25 29° SSW 16:35:26 77° ESE 16:41:07 10° NNE
Cosmos 1975 Rocket 3.2 16:33:52 10° N 16:38:23 80° E 16:42:58 10° S
Cosmos 1842 3.1 16:41:36 10° N 16:45:36 83° W 16:49:37 10° S
Cosmos 2279 Rocket 4.4 16:49:32 37° WSW 16:50:06 37° W 16:55:48 10° NNW
Lacrosse 4 Rocket 2.9 16:53:21 24° NW 16:53:21 24° NW 16:55:50 10° NNW
BREEZE-M DEB (TANK) 2.1 16:52:50 55° NNW 16:52:50 55° NNW 16:55:42 10° NE
Envisat 2.9 16:48:03 10° N 16:53:09 72° WNW 16:57:33 14° SSW
Cosmos 1455 Rocket 3.0 16:50:05 14° S 16:53:55 85° E 16:58:18 10° N
H-2A R/B 4.4 16:55:29 10° NNW 16:57:14 22° NW 16:57:14 22° NW
NOAA 12 4.0 16:53:47 10° NNE 16:59:04 82° WNW 17:04:25 10° SSW
Lacrosse 5 rocket 1.5 16:56:45 21° NNW 16:59:07 65° NE 17:03:05 10° SE
Cosmos 1470 3.0 16:57:01 12° S 17:00:44 72° E 17:04:38 10° NNE
FengYun 1-2 T 4.4 17:00:38 10° NNE 17:06:11 78° ESE 17:11:51 10° SSW
Cosmos 1656 3.7 17:08:15 10° NW 17:13:46 60° WSW 17:19:26 10° SSE
Cosmos 1898 Rocket 4.2 17:11:14 10° SSW 17:16:29 54° ESE 17:21:43 10° NE
Cosmos 2082 3.8 17:11:50 10° SSW 17:17:35 82° ESE 17:23:20 10° NNE
Okean 2 4.2 17:14:33 10° NW 17:18:11 29° WSW 17:21:53 10° SSW
Cosmos 2227 Rocket 2.3 17:14:30 17° SW 17:18:50 58° WNW 17:24:23 10° N
COSMO-SKYMED 1 2.9 17:16:23 10° SSE 17:20:50 71° ENE 17:25:11 10° N
Cosmos 2369 3.8 17:16:53 10° NNW 17:22:38 84° ENE 17:28:25 10° SSE
Cosmos 1271 Rocket 3.3 17:19:56 10° NW 17:23:23 33° WSW 17:26:55 10° S
NOAA 11 4.3 17:17:57 10° NNE 17:23:29 81° ESE 17:29:06 10° SSW
Cosmos 2263 Rocket 4.0 17:19:01 10° S 17:23:51 27° SE 17:28:38 10° ENE
Cosmos 921 Rocket 3.4 17:20:49 10° NW 17:24:47 39° WSW 17:28:47 10° S
Cosmos 990 Rocket 4.3 17:21:17 10° SSW 17:26:34 69° ESE 17:31:49 10° NNE
Cosmos 2219 3.9 17:26:08 18° SW 17:29:40 34° WNW 17:34:48 10° NNW
Cosmos 1340 Rocket 2.7 17:26:23 10° SSW 17:30:28 79° W 17:34:30 10° N
Okean O Rocket 3.0 17:31:04 10° NW 17:34:16 19° W 17:35:01 18° W
Meteor 1-21 4.5 17:29:02 10° NNW 17:34:41 50° WSW 17:40:21 10° S
Cosmos 1544 Rocket 3.8 17:31:36 10° SSW 17:35:52 48° W 17:40:03 10° NNW
Cosmos 1763 Rocket 3.8 17:31:07 10° NNW 17:36:27 76° ENE 17:41:48 10° SSE
Cosmos 468 Rocket 4.1 17:31:22 10° NNW 17:36:41 88° ENE 17:42:01 10° SSE
Cosmos 1674 4.3 17:33:36 10° NNE 17:37:04 37° E 17:40:37 10° SSE
YAOGAN 1 3.2 17:33:28 10° NNE 17:37:45 59° ESE 17:42:06 10° S
NOSS 3-1 (C) 3.4 17:31:45 10° SW 17:38:07 81° SE 17:43:37 10° NE
Aureole 3 Rocket 2.4 17:35:06 10° S 17:38:18 87° E 17:42:04 10° N
Cosmos 1980 Rocket 2.6 17:33:43 10° NNW 17:39:19 68° ENE 17:44:57 10° SSE
BREEZE-M DEB (TANK) 4.0 17:33:11 15° WSW 17:39:36 44° S 17:42:47 10° ESE
Cosmos 1536 Rocket 3.5 17:35:20 10° NNW 17:39:42 78° W 17:44:08 10° S
Cosmos 1758 3.6 17:36:02 10° SSW 17:39:56 46° W 17:43:50 10° NNW
CZ-4 R/B 1.6 17:36:10 10° NNE 17:40:18 77° ESE 17:44:35 10° S
Meteor 2-13 Rocket 4.4 17:34:24 10° NNW 17:40:29 65° W 17:46:41 10° S
USA 267 4.1 17:35:19 10° SE 17:41:01 32° SSW 17:45:54 13° WSW
SMAP 4.2 17:37:27 10° NNW 17:41:15 24° W 17:44:43 12° SW
ADEOS Rocket 2.8 17:35:53 10° S 17:41:27 59° WSW 17:46:51 10° NNW
CZ-2D R/B 3.4 17:39:42 10° NNE 17:43:36 79° ESE 17:47:34 10° S
In-Cosmos 22 4.3 17:38:16 10° N 17:43:53 82° E 17:49:26 10° SSE
ASTEX 1 3.4 17:39:08 10° N 17:44:02 72° W 17:49:01 10° S
Cosmos 2278 3.8 17:40:05 10° NNW 17:45:48 88° ENE 17:51:34 10° SSE
SJ 16-02 1.4 17:41:38 10° SSW 17:46:03 62° WNW 17:50:25 10° N
Cosmos 1707 3.1 17:42:44 10° NNW 17:46:32 44° WSW 17:50:23 10° S
Cosmos 1025 Rocket 3.2 17:46:02 10° NNW 17:50:12 48° WSW 17:54:26 10° S
Cosmos 1655 Rocket 4.5 17:44:15 10° N 17:50:29 67° E 17:56:44 10° SSE
USA 229 DEB 3.7 17:45:40 10° SW 17:52:36 88° ESE 17:59:07 10° NE
Cosmos 1939 Rocket 2.9 17:48:41 10° N 17:52:40 67° WNW 17:56:47 10° SSW
USA 229 3.7 17:45:47 10° SW 17:52:43 87° SE 17:59:15 10° NE
Okean-O 2.8 17:49:40 10° N 17:54:04 57° W 17:58:31 10° SSW
Cosmos 2026 Rocket 4.2 17:50:42 10° NNW 17:56:35 49° WSW 18:02:38 10° S
Cosmos 1461 4.5 17:53:14 10° SSW 17:56:38 27° SE 17:59:58 10° ENE
Cosmos 841 Rocket 4.1 17:52:44 10° N 17:57:56 63° ENE 18:03:12 10° SSE
SL-24 R/B 4.2 17:55:27 10° NNE 17:59:52 89° E 18:04:17 10° SSW
USA 186 4.3 17:59:28 10° E 18:00:27 12° ESE 18:01:27 10° SE
Cosmos 1937 Rocket 3.5 17:55:29 10° SSW 18:00:43 88° WNW 18:05:54 10° NNE
Meteor 2-8 Rocket 4.5 17:54:50 10° S 18:01:01 87° W 18:07:09 10° N
Helios 1A Rocket 4.1 17:57:45 10° NNW 18:01:01 23° W 18:04:20 10° SW
H-2A R/B 3.1 17:58:08 10° NE 18:02:49 44° ESE 18:07:33 10° S
NOSS 3-1 (A) 3.5 17:58:00 10° SW 18:04:29 77° SE 18:09:59 10° NE
Cosmos 1908 3.4 18:03:49 10° S 18:07:45 78° E 18:11:36 10° NNE
SKYMED 2 4.2 18:04:44 10° S 18:08:47 36° WSW 18:12:48 10° NW
HJ-1C 4.0 18:05:47 10° NNE 18:09:06 61° ESE 18:12:29 10° S
CSL-04 Debris 4.2 18:04:42 10° NNE 18:10:09 87° WNW 18:15:40 10° SSW
Cosmos 1697 Rocket 3.1 18:05:20 10° NW 18:10:36 40° WSW 18:15:57 10° SSE
Cosmos 1726 2.7 18:07:29 10° SSW 18:10:59 36° W 18:14:25 10° NNW
Cosmos 2360 4.4 18:05:59 10° NW 18:11:35 53° WSW 18:17:14 10° SSE
Cosmos 2208 Rocket 4.3 18:07:43 10° NNW 18:12:57 76° ENE 18:18:11 10° SSE
CSL-04 Rocket 3.7 18:09:31 10° NNE 18:14:54 83° WNW 18:20:26 10° SSW
Meteor 1-16 Rocket 4.5 18:12:36 10° SSW 18:18:26 57° W 18:24:02 10° N
Cosmos 2297 Rocket 3.8 18:15:25 10° WSW 18:18:44 16° W 18:22:03 10° NW
CZ-4C R/B 4.0 18:13:37 10° WSW 18:18:57 20° SSW 18:23:45 10° SSE
Cosmos 2227 4.5 18:14:04 10° SSW 18:19:45 73° ESE 18:25:24 10° NNE
Aureole 3 3.9 18:16:54 10° S 18:22:39 81° W 18:27:04 10° N
